Погода в Пашково

Россия / Кемеровская область (Кузбасс)     56°02′44″N   85°08′20″E
темп.,
°C
ветер,
м/с
пор.,
м/с
влажн.,
%
обл.,
%
осадки,
мм/ч
давл.,
гПа
погр.,
м
16 апреля, пт
пт1601:00+3ююз41298100 0.1 1018429
04:00+3юз41298100 0.2 1016424
07:00+3юз41298100 0.3 1015369
10:00+4ююз51499100 0.0 1013486
13:00+5юз61699100 0.1 1011621
16:00+5юз51298100 1.4 1010570
19:00+2с5997100 2.6 1012431
22:000с3999100 2.1 1015576
17 апреля, сб
сб1701:00−2сз2597100 2.5 1017176
04:00−2с4891100 0.1 1019593
07:00−5с378492 0.1 1022541
10:00−4с34644 0.0 1023751
13:00−1ссз22535 0.0 10231115
16:000сз2254100 0.0 10231199
19:00−1з12604 0.0 1023904
22:00−4ю23825 0.0 102350
18 апреля, вс
вс1801:00−4ю2683100 0.0 1022138
04:00−3ю3979100 0.0 1020428
07:00−2ююз4980100 0.0 1017749
10:00+1ююз61072100 0.0 10151012
13:00+3ююз61067100 0.0 10121276
16:00+3ююз51073100 0.1 10091208
19:00+1ю41298100 1.0 1005739
22:00+1ю4898100 0.6 1001346
19 апреля, пн
пн1901:000юз41098100 3.7 998702
04:00−4сз71392100 2.3 1001938
07:00−8сз81590100 3.4 1010892
10:00−8сз71077100 0.2 10171038
13:00−5сз6861100 0.3 10221662
16:00−4сз5755100 0.1 10241881
19:00−4сз4661100 0.1 10251627
22:00−7сз3775100 0.1 1027356
20 апреля, вт
вт2001:00−8ссз13875 0.1 102895
04:00−9з149025 0.0 1029136
07:00−9з26825 0.0 1029494
10:00−6з3463100 0.0 10291237
13:00−3зюз4554100 0.1 10281583
16:00−2зюз4751100 0.1 10261861
19:00−2юз4757100 0.1 10241385
22:00−3юз4961100 0.0 10231107